INFORMAÇÕES DO AERODROMO
Icao Aerodromo SCFT Nome do Aerodromo Futaleufú Airport Cidade Futaleufu
Código GPS SCFT Elevação Média 1148 ft Tipo de Aerodromo small_airport

INFORMAÇÃO DE PISTA
Pista 09 Comprimento da Pista 3110 ft Largura da Pista 59 ft
Elevação da Pista 0 ft Distância de Area de Escape da Pista 0 ft Orientação da Pista 103
Pista 27 Comprimento da Pista 3110 ft Largura da Pista 59 ft
Elevação da Pista 0 ft Distância de Area de Escape da Pista 0 ft Orientação da Pista 283

FREQUÊNCIAS DO AERODROMO
Tipo INFO Nome INFO Frequência 126.7 MHZ

INFORMAÇÕES DE NAVEGAÇÃO PRÓXIMO AO AERODROMO

Informações de Meteorologia(METAR atual)
METAR DE SCFT
ADDS - METARS form results

(0506 UTC 19 June 2019)
Data provider http://aviationweather.gov/metar/data/
 
METAR text: SCFT 190500Z AUTO 27005KT 9999 08/02 Q1022
Conditions at: SCFT (FUTALEUFU , CL) observed 0500 UTC 19 June 2019
Temperature: 8.0°C (46°F)
Dewpoint: 2.0°C (36°F) [RH = 66%]
Pressure (altimeter): 30.18 inches Hg (1022.0 mb)
Winds: from the W (270 degrees) at 6 MPH (5 knots; 2.6 m/s)
Visibility: 6 or more miles (10+ km)
Ceiling: unknown
Clouds: missing
Weather: no significant weather observed at this time

MAPA DO AERODROMO


Desenvolvido por Virtual Airlines Manager




Modificado por Servidor Brasil Amigos